Regional Weather Roundup
Issued by NWS

Home | Current Version | Previous Version | Graphics & Text | Print | Product List | Glossary Off
Versions: 1 2 3 4 5 6 7 8 9 10 11 12 13 14 15 16 17 18 19 20 21 22 23 24 25 26 27 28 29 30 31 32 33 34 35 36 37 38 39 40 41 42 43 44 45 46 47 48 49 50

000
ASUS43 KMKX 051500
RWRWI

WISCONSIN REGIONAL WEATHER ROUNDUP
NATIONAL WEATHER SERVICE MILWAUKEE/SULLIVAN WI
1000 AM CDT SAT SEP 05 2015

NOTE: "FAIR" INDICATES FEW OR NO CLOUDS BELOW 12,000 FEET WITH NO
SIGNIFICANT WEATHER AND/OR OBSTRUCTIONS TO VISIBILITY.

WIZ001-002-006>008-014>016-023>028-051600-
NORTHWEST WISCONSIN

CITY           SKY/WX    TMP DP  RH WIND       PRES   REMARKS
SUPERIOR ARPT  PTSUNNY   68  64  86 CALM      29.97F
ASHLAND        SUNNY     75  70  84 S7        30.00F
HAYWARD        MOSUNNY   76  68  76 SE6       30.02R
SIREN          PTSUNNY   77  69  76 SE7       29.98R
CUMBERLAND     PTSUNNY   72  68  88 S9        30.00S
RICE LAKE      PTSUNNY   73  67  83 SE8       30.02S
CHETEK         PTSUNNY   74  69  85 SE8       30.01R
LADYSMITH      MOSUNNY   75  68  78 SE6       30.04F
EAU CLAIRE     NOT AVBL
MENOMONIE      CLOUDY    74  71  89 SE10      29.98F
NEW RICHMOND   CLOUDY    75  70  85 S9G16     29.96F
OSCEOLA        CLOUDY    76  75  96 SE6       29.98S
$$

WIZ003>005-009-010-017-018-051600-
NORTH CENTRAL WISCONSIN

CITY           SKY/WX    TMP DP  RH WIND       PRES   REMARKS
MANITOWISH WTR CLOUDY    71  69  94 S6        30.08S FOG
ARBOR VITAE    CLOUDY    72  70  93 S6        30.08R FOG
WOODRUFF       CLOUDY    72  70  93 S6        30.08R FOG
RHINELANDER    MOSUNNY   73  67  81 S7        30.09S
EAGLE RIVER    CLOUDY    70  67  90 S6        30.07F
LAND O LAKES   CLOUDY    70  66  87 S5        30.09R
PHILLIPS       PTSUNNY   71  69  91 SE5       30.05S
TOMAHAWK       CLOUDY    70  66  88 CALM      30.08S FOG
MEDFORD        CLOUDY    68  68  99 SE3       30.08R FOG
MERRILL        CLOUDY    72  69  88 CALM      30.09R
$$

WIZ029-030-035-036-043>047-051600-
CENTRAL WISCONSIN

CITY           SKY/WX    TMP DP  RH WIND       PRES   REMARKS
WAUSAU         CLOUDY    71  67  87 SE5       30.07R
MOSINEE        PTSUNNY   70  70 100 S5        30.09S
MARSHFIELD     PTSUNNY   72  66  81 E7        30.07S HAZE
STEVENS POINT  SUNNY     72  67  84 SE3       30.08S
WAUPACA        SUNNY     75  70  83 SE5       30.08F
WAUTOMA        NOT AVBL
WISC RAPIDS    MOSUNNY   78  66  66 NE5       30.08S HX  80
CAMP DOUGLAS   NOT AVBL
$$

WIZ011>013-019>022-031-037>040-048>050-051600-
NORTHEAST WISCONSIN

CITY           SKY/WX    TMP DP  RH WIND       PRES   REMARKS
ANTIGO         CLOUDY    69  66  92 S5        30.10S
SHAWANO        NOT AVBL
OCONTO         CLOUDY    67  67 100 CALM      30.08F
STURGEON BAY   CLOUDY    68  64  88 CALM      30.12S
GREEN BAY      CLOUDY    71  67  87 CALM      30.09F FOG
MANITOWOC      CLOUDY    63  61  94 MISG      30.11S
APPLETON       NOT AVBL
CLINTONVILLE   MOSUNNY   72  66  83 SE5       30.08F
OSHKOSH        MOSUNNY   75  68  78 S5        30.08S
$$

WIZ032>034-041-042-053>061-051600-
SOUTHWEST WISCONSIN

CITY           SKY/WX    TMP DP  RH WIND       PRES   REMARKS
LA CROSSE      MOSUNNY   79  70  74 S8        30.02R HX  82
SPARTA         PTSUNNY   77  64  64 CALM      30.04S
VIROQUA        MOSUNNY   74  67  80 S5        30.06S
BOSCOBEL       PTSUNNY   75  68  78 SW3       30.05S
PRAIRIE DU CHI MOSUNNY   78  71  79 SE3       30.04S HX  80
PLATTEVILLE    MOSUNNY   74  73  95 SE7       30.08S
$$

WIZ056-057-062-063-064-067-068-051600-
SOUTH CENTRAL WISCONSIN

CITY           SKY/WX    TMP DP  RH WIND       PRES   REMARKS
REEDSBURG      MOSUNNY   75  70  84 CALM      30.06S
BARABOO/DELLS  MOSUNNY   78  67  68 CALM      30.06S HX  80
LONE ROCK      NOT AVBL
MINERAL POINT  CLOUDY    72  70  94 S6        30.08S FOG
MADISON        MOSUNNY   78  68  71 E5        30.07S HX  80
MIDDLETON      PTSUNNY   78  67  69 SE3       30.08S HX  80
WATERTOWN      PTSUNNY   71  71 100 E3        30.09R FOG
MONROE         CLOUDY    72  70  94 S5        30.07S FOG
JANESVILLE     PTSUNNY   79  72  78 CALM      30.08R HX  82
$$

WIZ051-052-058>065-066-070>072-051600-
SOUTHEAST WISCONSIN

CITY           SKY/WX    TMP DP  RH WIND       PRES   REMARKS
MILWAUKEE      CLOUDY    70  69  97 SE3       30.09F
WAUKESHA       PTSUNNY   70  66  88 SE3       30.11S FOG
MILWAUKEE/TIMM CLOUDY    70  64  83 S5        30.10F FOG
RACINE         CLOUDY    72  68  87 CALM      30.11S FOG
BURLINGTON     CLOUDY    70  67  92 CALM      30.10S FOG
KENOSHA        MOSUNNY   76  70  82 VRB5      30.10R
FOND DU LAC    SUNNY     75  68  78 VRB5      30.09S
SHEBOYGAN      MOSUNNY   71  67  87 VRB3      30.10S
WEST BEND      CLOUDY    66  64  94 CALM      30.10S FOG
JUNEAU         CLOUDY    70  67  92 SE3       30.10S FOG
$$

LSZ147-162-051600-
LAKE SUPERIOR

STATION/POSITION TIME  TEMP    WIND        PRES    WAVE
                       AIR SEA DIR/SP/G            HT/PER
                 (UTC) (F)     (DEG/KT/KT) (MB)    (FT/S)
W MID LAKE BUOY  1350   65 56  160/  2/  6 1016.1R   1/ 3
DEVILS ISLAND    1400   69     170/  9/ 12 1015.5S
PORT WING        1400   73     170/  1/  4 1015.6S
SAXON HARBOR     1400   73     200/  2/  5 1015.6F
$$

LMZ867-665-643>646-051600-
LAKE MICHIGAN

STATION/POSITION TIME  TEMP    WIND        PRES    WAVE
                       AIR SEA DIR/SP/G            HT/PER
                 (UTC) (F)     (DEG/KT/KT) (MB)    (FT/S)
CHAMBERS ISLAND  1400   74      CALM  /  2 1019.0R
S GREEN BAY BUOY 1400   65 67  100/  4/  6 1020.3R
N MID LAKE BUOY  1350   66 67  270/  6/  8 1018.6R   0
NORTHPORT PIER   1401   67     310/  2/  4 1019.0R
SISTER BAY       1411   68        CALM       N/A
ALGOMA LAKESHORE 1314             CALM       N/A
KEWAUNEE LAKESHO 1400   64     160/  2/  3 1018.2R
SHEBOYGAN LAKESH 1400   63     160/  7/  7 1019.3F
PORT WASHINGTON  1400   61      CALM  /  3 1020.0S
ATWATER BUOY     1400   61 60   20/  4/  4 1020.7R
MILWAUKEE LAKESH 1410   62      40/  8/  8   N/A
S MID LAKE BUOY  1350   71 71  160/ 12/ 14 1018.2F   0
KENOSHA   LAKESH 1400   68     170/  2/  4 1018.6F
$$

TC  - TEMPERATURE IN CELSIUS
VSB - VISIBILITY IN STATUTE MILES
WCI - WIND CHILL INDEX
HX  - HEAT INDEX




USA.gov is the U.S. government's official web portal to all federal, state and local government web resources and services.